Location: Unspecified
(0.0000°N, 0.0000°E)
Time: 06:11:24
(UTC+00:00)

Tiros 1 - Pass Details

Date: 02 October 2020
Orbit: 630 x 663 km, 48.4° (Epoch: 28 October)

Event Time Altitude Azimuth Distance (km) Brightness Sun altitude
Rises 11:24:47 0° 257° (WSW) 2,911 10.5 82.8°
Reaches altitude 10° 11:28:37 10° 289° (WNW) 2,005 9.8 83.6°
Maximum altitude 11:30:16 12° 310° (NW) 1,890 9.7 83.9°
Drops below altitude 10° 11:31:56 10° 332° (NNW) 2,007 9.8 84.2°
Sets 11:35:49 0° 4° (N) 2,919 10.5 84.9°
